Wind_Speed
34 35 36 37 38 39 37 35 33 33 32 31 30 29 29 27 26 25 24 23 22 21 20 19 18 17 16 15 14 14 14 13 12 12 11 11 11 10 10 10 10 10 10 10 10 11 11 12 13
35 36 37 39 40 40 37 35 35 34 34 33 32 31 31 29 27 26 25 24 23 23 22 20 20 19 18 17 16 16 15 14 13 13 12 12 12 11 11 12 12 11 11 12 12 12 13 13 14
36 37 38 40 41 39 37 36 36 36 36 35 34 33 32 30 29 28 27 26 25 24 23 22 21 20 20 19 18 17 16 16 15 14 14 13 13 13 12 13 13 12 13 13 13 14 15 15 15
36 38 39 41 40 38 37 37 38 38 38 37 36 35 33 32 30 29 28 28 26 26 25 24 23 22 21 21 20 19 18 17 16 16 15 15 14 13 13 13 14 14 14 15 15 16 16 17 17
37 39 40 41 40 38 38 39 40 40 39 39 38 37 35 33 32 31 30 29 28 27 26 26 25 24 23 23 22 21 20 19 18 17 17 16 16 15 15 15 15 16 16 17 17 17 18 18 18
37 39 40 40 38 38 39 39 41 41 41 40 39 38 37 35 34 32 32 31 29 28 28 27 27 26 25 24 23 22 21 20 19 19 18 18 18 17 17 17 17 17 17 18 18 19 19 19 20
37 38 39 38 37 38 39 40 41 41 42 41 41 39 38 36 35 34 33 33 31 30 29 28 28 28 27 25 24 23 22 21 21 20 20 19 19 19 18 18 18 18 19 20 20 20 21 21 21
36 37 38 38 38 38 39 41 41 42 42 42 42 41 39 38 37 36 35 34 33 32 31 30 29 29 28 27 25 25 24 23 22 22 21 21 20 20 20 20 20 20 21 21 21 21 21 22 22
35 38 38 37 37 38 39 42 42 43 43 43 42 42 40 39 38 37 36 35 34 33 32 31 31 30 29 28 27 26 26 25 24 23 23 22 22 21 21 21 21 22 22 22 22 22 22 23 23
35 37 37 36 37 38 39 41 42 43 43 43 42 42 41 40 39 38 37 36 35 34 33 32 31 31 30 29 28 28 27 26 25 25 24 23 23 23 22 23 23 23 23 24 24 24 23 24 24
35 36 36 37 37 39 40 41 42 43 43 43 42 42 42 41 40 39 38 37 36 35 34 33 33 32 31 30 29 29 28 27 27 26 25 24 24 24 24 24 24 25 25 25 25 25 24 25 25
34 35 36 36 37 38 40 41 42 43 43 43 43 43 43 42 41 40 39 38 37 36 35 35 34 33 33 31 31 30 29 28 28 27 26 26 26 26 26 26 26 26 26 26 26 26 26 26 26
31 33 34 35 36 37 38 40 42 42 42 43 44 44 43 43 42 41 40 39 38 38 37 36 35 35 34 33 32 31 31 30 29 29 28 27 27 27 27 27 27 27 27 27 27 27 27 27 28
29 31 32 33 35 36 37 38 41 42 42 42 43 44 44 43 42 41 40 39 39 39 38 37 37 36 35 34 33 33 32 31 31 30 29 29 28 28 28 28 28 28 28 28 28 28 28 28 29
27 29 30 30 34 35 37 38 40 41 42 42 42 43 44 43 43 42 41 39 39 39 39 38 38 37 36 35 33 33 33 32 31 31 31 30 30 29 29 28 28 29 29 29 29 29 29 29 30
25 27 29 29 31 34 36 37 38 39 41 42 42 42 43 43 43 42 42 41 40 40 39 39 39 38 37 36 35 34 33 33 32 31 31 31 31 30 30 30 29 29 30 30 29 30 30 30 30
24 26 27 28 30 32 35 36 37 38 38 40 41 42 43 43 43 43 43 42 41 40 39 40 40 39 38 37 37 36 35 34 33 32 31 31 31 31 31 31 30 30 30 30 30 30 29 30 31
22 25 26 27 28 32 33 34 34 37 37 37 38 40 42 43 43 43 43 43 42 41 40 40 41 41 40 38 38 37 36 35 34 33 32 32 32 32 32 31 31 31 31 31 31 30 30 30 31
19 22 24 25 27 29 31 32 32 34 36 36 36 37 40 42 42 42 43 44 44 43 41 40 41 41 41 40 38 38 37 36 35 34 33 33 33 32 31 31 31 31 31 30 30 31 31 32 32
19 21 23 24 25 28 30 31 32 33 34 35 35 36 37 40 41 41 42 43 44 43 43 42 41 41 41 40 39 38 38 37 36 35 34 34 33 32 32 32 31 31 31 30 31 32 32 32 32
17 19 21 23 24 26 28 30 31 32 33 34 34 34 36 37 39 41 41 42 43 43 43 43 42 41 41 41 40 39 38 38 37 37 36 34 34 33 33 33 32 32 32 32 32 32 32 32 32
14 17 20 22 24 26 26 28 30 31 33 34 34 34 35 36 38 39 40 41 41 42 43 43 43 42 41 41 41 41 40 39 38 37 37 36 35 34 34 33 33 33 33 33 33 33 33 33 32
14 15 18 20 23 25 26 27 28 30 32 33 34 34 34 35 37 38 38 39 40 41 42 42 42 42 42 41 41 41 41 40 39 38 38 37 36 36 36 35 34 34 34 33 34 33 33 33 33
14 15 17 19 21 23 24 27 28 29 29 30 32 32 33 34 35 36 38 38 39 40 41 41 42 42 43 42 41 41 41 40 40 39 39 39 38 37 36 36 35 35 35 35 34 34 34 34 34
15 15 15 17 19 21 23 25 26 27 27 29 30 31 31 33 34 36 37 38 38 39 40 40 41 42 42 42 41 41 41 41 40 40 40 40 39 38 37 37 36 36 35 35 35 34 34 34 33
13 15 16 17 19 21 22 25 25 25 27 28 29 30 31 32 33 35 36 37 38 38 38 39 40 40 41 42 42 41 41 41 41 41 40 40 39 39 39 38 37 36 36 35 34 34 34 33 32
13 14 15 17 18 20 21 23 24 24 26 27 28 29 30 31 32 33 34 36 37 38 37 38 39 39 40 41 42 41 41 41 41 41 40 40 39 39 39 39 38 37 36 35 34 34 33 33 32
14 14 15 16 18 19 20 21 22 23 23 25 27 28 29 30 32 33 33 34 36 37 37 37 38 38 39 40 41 42 41 41 41 41 41 40 40 40 39 39 38 37 37 36 36 35 34 34 33
14 14 15 16 18 20 20 20 21 21 22 24 25 27 28 29 31 33 34 34 35 35 36 36 37 37 38 39 39 40 41 41 41 41 41 40 40 40 40 40 39 39 38 37 36 35 35 34 33
15 16 16 18 19 19 21 20 20 21 21 22 24 26 28 29 29 32 34 35 35 35 35 35 36 36 37 38 39 39 39 40 41 40 41 41 40 40 40 40 40 39 38 37 36 35 34 34 33
Wind_Direction
241 239 237 235 234 233 232 230 229 228 229 229 229 230 231 230 230 231 230 230 230 229 227 227 228 228 228 230 231 233 236 238 242 245 248 252 255 258 263 269 274 277 282 288 293 297 300 302 303
241 239 237 235 234 233 232 230 229 228 229 229 229 229 229 229 229 230 230 230 230 230 228 228 230 231 231 232 234 235 237 241 242 245 249 253 256 260 265 269 273 277 282 287 292 295 298 301 302
241 240 238 236 234 233 232 230 229 228 228 229 229 229 230 229 229 230 230 231 231 231 231 230 231 232 232 234 235 237 239 242 243 245 248 252 257 261 265 270 273 278 282 287 291 295 297 299 301
240 239 238 236 235 232 231 230 229 228 228 228 228 228 229 229 229 230 230 231 231 232 233 232 232 233 233 234 236 237 239 242 243 245 247 251 256 261 266 269 272 277 282 286 290 294 297 298 299
239 238 237 236 234 231 230 229 228 228 228 228 229 228 228 229 230 230 231 232 232 232 234 234 233 234 235 235 236 238 240 242 243 246 249 252 256 261 266 270 273 277 281 285 289 292 295 296 298
239 239 238 237 234 231 229 229 229 228 228 228 229 229 228 228 229 230 230 231 232 233 234 235 234 235 235 236 238 239 240 242 244 247 250 253 257 261 265 269 273 277 281 283 286 290 292 294 295
240 239 239 237 234 231 229 229 230 228 228 228 229 230 229 228 228 230 230 231 232 232 233 234 235 235 235 236 237 239 241 243 245 247 250 254 257 261 265 269 273 277 281 283 285 288 289 291 292
241 240 238 236 233 231 230 230 230 229 228 228 228 229 229 229 229 229 230 231 232 232 232 232 234 234 235 236 237 239 241 243 245 248 251 254 258 261 265 269 273 277 280 282 284 286 288 290 291
241 240 238 235 233 231 230 230 229 229 227 227 228 229 230 230 229 230 230 232 232 232 232 231 233 233 234 235 237 239 241 244 246 249 251 254 258 262 266 269 273 276 279 281 283 285 286 288 290
239 240 238 236 234 231 230 230 229 229 227 226 227 228 230 230 229 230 230 232 233 232 232 231 231 232 233 235 237 238 241 244 247 249 252 256 260 264 267 269 273 276 279 280 282 284 285 287 288
239 238 237 235 234 232 230 230 230 229 227 226 227 227 229 229 230 230 230 231 232 232 232 230 230 231 233 235 236 238 241 244 248 250 253 256 260 264 267 270 273 276 277 279 281 282 284 285 287
238 237 236 234 233 232 231 230 230 230 228 226 226 227 228 229 229 230 231 230 230 231 231 230 231 233 234 235 237 239 241 244 248 251 253 257 261 264 267 270 273 275 276 278 279 280 282 284 286
237 235 234 234 233 232 231 230 230 229 228 226 226 227 228 229 230 230 230 230 230 230 230 231 231 232 234 235 237 241 243 245 248 251 254 257 260 264 266 269 272 274 275 276 277 279 281 283 286
235 235 233 233 232 232 232 230 230 229 227 227 227 227 228 229 230 230 230 231 231 230 230 231 232 232 233 235 238 241 244 246 248 251 253 256 259 262 265 268 271 273 274 275 276 278 280 282 285
234 234 232 230 232 231 232 230 229 229 228 228 228 228 228 228 229 230 230 230 231 231 231 231 232 233 233 235 237 240 244 246 249 250 252 255 258 261 264 267 270 272 273 274 275 277 279 281 283
234 234 232 228 230 230 232 231 229 229 229 227 227 228 229 228 229 230 231 230 230 231 231 231 232 233 234 235 237 239 242 245 248 251 253 255 258 261 264 267 269 271 272 274 275 277 279 281 283
234 233 233 231 231 231 232 232 229 229 230 228 227 228 229 229 229 230 230 231 230 231 231 232 232 233 235 236 238 241 243 244 248 251 254 255 258 261 264 266 268 271 272 274 276 278 280 281 284
237 236 234 231 231 232 232 232 230 231 230 228 227 228 229 228 229 229 230 230 230 231 232 232 233 233 235 237 239 241 243 245 247 250 253 255 258 261 263 266 268 269 272 274 275 276 279 282 284
243 240 236 233 233 233 232 232 230 230 229 229 228 228 229 228 228 229 229 230 230 231 232 233 234 235 235 237 239 242 244 246 248 250 253 256 258 262 264 265 267 269 271 273 275 277 279 281 284
241 239 236 232 233 234 232 231 230 229 228 228 229 229 229 229 229 229 229 230 231 232 232 232 233 235 237 238 239 242 245 247 249 251 253 256 258 261 265 267 268 270 271 272 275 277 280 281 283
244 241 238 236 232 232 233 231 229 228 229 229 229 230 230 229 230 231 230 231 231 232 232 233 233 235 238 239 239 241 244 247 249 251 254 257 258 260 263 265 267 269 271 272 275 277 278 281 283
243 240 239 238 235 235 235 235 230 230 230 230 230 231 232 230 230 231 231 232 233 233 233 234 235 235 237 240 241 243 245 247 249 252 254 256 257 260 263 266 268 269 271 272 274 277 278 281 283
244 243 243 241 238 237 236 238 233 232 233 233 233 234 234 232 231 232 232 233 233 234 235 235 236 236 237 239 241 243 246 247 249 252 254 256 259 261 263 266 268 270 272 273 275 277 278 279 281
243 243 243 242 239 238 237 239 236 236 235 236 236 236 236 234 233 233 234 234 234 235 236 237 237 237 238 240 242 244 246 248 250 252 254 256 258 260 262 265 267 270 272 274 275 277 279 280 282
243 243 243 240 238 238 237 240 241 239 238 238 238 238 237 236 235 234 234 234 235 236 238 239 239 240 241 242 243 245 247 248 250 252 254 256 258 260 262 264 267 269 272 274 275 277 279 281 282
245 242 244 243 240 240 241 243 244 242 240 239 239 239 237 235 234 232 232 234 235 236 238 239 240 241 242 243 244 246 247 249 250 252 254 255 257 260 261 264 266 268 270 272 274 276 278 280 282
249 242 244 249 249 248 246 246 246 244 242 241 240 239 237 236 234 232 232 234 235 236 237 238 240 242 243 244 245 247 247 248 250 251 253 255 256 258 260 262 264 266 268 270 272 275 277 279 281
250 248 248 250 251 251 248 248 247 246 244 244 242 241 240 238 235 233 233 234 235 237 238 240 241 242 243 244 246 247 248 249 250 251 253 255 256 258 260 261 262 265 267 269 271 273 276 279 280
249 248 248 250 251 254 255 251 247 247 248 247 246 244 242 240 238 236 235 235 236 238 240 241 241 241 243 244 245 247 249 249 250 251 253 254 256 258 259 260 262 264 266 268 270 273 275 277 279
254 253 251 251 252 255 259 256 250 250 251 250 248 245 242 241 241 238 236 236 237 239 240 242 243 243 244 245 245 246 248 249 250 252 253 254 255 257 259 260 261 263 265 267 269 272 274 276 278
Height
5805 5807 5810 5813 5816 5818 5822 5828 5832 5835 5838 5840 5842 5845 5847 5850 5853 5857 5858 5859 5861 5863 5865 5867 5869 5870 5871 5873 5874 5875 5876 5877 5878 5878 5879 5880 5880 5881 5881 5881 5881 5881 5880 5880 5879 5879 5878 5877 5876
5797 5800 5803 5805 5807 5811 5818 5823 5827 5830 5833 5834 5837 5839 5842 5845 5848 5851 5853 5855 5857 5859 5862 5864 5866 5867 5869 5870 5872 5873 5874 5875 5876 5876 5877 5878 5878 5879 5879 5879 5879 5879 5878 5878 5877 5877 5876 5875 5874
5789 5792 5795 5797 5800 5806 5813 5818 5821 5823 5826 5828 5831 5834 5837 5841 5844 5847 5849 5851 5854 5856 5858 5860 5862 5864 5866 5867 5869 5870 5871 5872 5873 5874 5875 5876 5876 5876 5876 5877 5876 5876 5876 5876 5875 5874 5874 5873 5872
5781 5783 5786 5789 5794 5801 5806 5810 5813 5816 5819 5822 5825 5829 5832 5836 5839 5842 5845 5847 5850 5852 5854 5856 5858 5860 5862 5864 5866 5867 5869 5870 5871 5872 5872 5873 5874 5874 5874 5874 5874 5874 5874 5873 5872 5872 5871 5870 5869
5772 5774 5777 5781 5787 5794 5799 5802 5805 5808 5812 5816 5820 5823 5826 5830 5833 5837 5840 5842 5845 5848 5850 5852 5854 5856 5859 5860 5862 5864 5865 5867 5868 5869 5870 5870 5871 5871 5871 5871 5871 5871 5871 5870 5869 5869 5868 5867 5866
5763 5765 5769 5774 5781 5787 5791 5794 5797 5801 5805 5809 5813 5817 5820 5824 5827 5831 5834 5837 5840 5843 5846 5848 5850 5852 5854 5857 5858 5860 5862 5863 5865 5866 5867 5867 5868 5868 5868 5868 5868 5868 5867 5867 5866 5865 5864 5863 5862
5755 5758 5762 5768 5774 5779 5784 5786 5789 5794 5798 5802 5806 5810 5814 5818 5822 5825 5828 5831 5834 5837 5840 5843 5845 5848 5850 5852 5854 5856 5858 5860 5861 5862 5863 5864 5865 5865 5865 5865 5865 5864 5864 5863 5862 5862 5861 5859 5858
5747 5751 5754 5760 5765 5771 5775 5777 5781 5786 5790 5795 5798 5803 5807 5812 5815 5819 5822 5825 5828 5832 5835 5838 5840 5843 5845 5848 5850 5852 5854 5856 5857 5858 5859 5860 5861 5861 5862 5862 5861 5861 5860 5859 5858 5858 5856 5855 5854
5738 5742 5746 5752 5757 5762 5766 5769 5773 5777 5782 5787 5791 5796 5801 5805 5809 5812 5816 5819 5823 5826 5829 5832 5835 5838 5841 5843 5845 5847 5849 5851 5853 5854 5855 5856 5857 5857 5857 5857 5857 5857 5856 5855 5854 5853 5852 5851 5849
5729 5733 5739 5744 5748 5753 5756 5760 5764 5769 5774 5779 5784 5789 5793 5798 5801 5805 5809 5813 5816 5820 5824 5827 5829 5832 5835 5838 5840 5843 5845 5846 5848 5849 5851 5852 5852 5853 5853 5853 5853 5852 5851 5851 5850 5848 5847 5846 5845
5720 5725 5730 5735 5738 5742 5746 5751 5755 5760 5766 5771 5776 5781 5785 5790 5794 5798 5802 5806 5810 5813 5817 5820 5824 5826 5829 5832 5835 5837 5840 5842 5843 5845 5846 5847 5848 5848 5848 5848 5848 5847 5846 5846 5845 5844 5842 5841 5840
5712 5716 5720 5725 5729 5733 5737 5742 5746 5752 5758 5763 5767 5772 5777 5782 5786 5791 5795 5799 5803 5807 5811 5814 5817 5821 5824 5827 5829 5832 5834 5836 5838 5839 5841 5842 5843 5843 5843 5843 5843 5842 5841 5840 5840 5838 5837 5836 5834
5704 5708 5712 5716 5720 5724 5728 5733 5738 5743 5749 5753 5758 5763 5769 5774 5778 5783 5787 5792 5796 5800 5804 5808 5811 5814 5818 5821 5824 5826 5828 5831 5832 5834 5835 5836 5837 5838 5838 5838 5837 5836 5836 5835 5834 5833 5832 5830 5829
5697 5700 5704 5708 5712 5716 5720 5725 5729 5734 5739 5745 5750 5755 5760 5765 5770 5775 5780 5784 5788 5793 5797 5801 5804 5808 5811 5815 5818 5820 5822 5824 5826 5828 5829 5830 5831 5832 5832 5832 5831 5830 5830 5829 5828 5827 5826 5824 5823
5690 5693 5697 5700 5704 5708 5712 5716 5721 5726 5731 5736 5742 5747 5752 5757 5762 5767 5772 5777 5781 5785 5790 5794 5797 5801 5805 5808 5811 5814 5816 5818 5820 5821 5823 5824 5825 5825 5825 5825 5825 5824 5824 5823 5822 5821 5819 5818 5816
5683 5686 5690 5694 5697 5700 5705 5709 5714 5718 5723 5728 5733 5739 5743 5749 5754 5759 5764 5769 5773 5778 5782 5786 5790 5794 5797 5801 5804 5806 5809 5811 5813 5814 5816 5817 5818 5818 5819 5819 5818 5818 5817 5816 5815 5814 5813 5811 5810
5676 5679 5684 5688 5691 5694 5697 5702 5707 5710 5715 5720 5725 5730 5735 5740 5746 5751 5756 5761 5765 5770 5774 5779 5783 5787 5790 5793 5796 5799 5801 5804 5806 5807 5809 5810 5811 5811 5812 5812 5812 5811 5811 5810 5809 5808 5806 5805 5803
5672 5675 5679 5682 5685 5688 5691 5695 5699 5703 5707 5712 5717 5722 5727 5732 5738 5743 5748 5752 5757 5762 5767 5771 5775 5779 5783 5786 5789 5791 5794 5796 5798 5800 5802 5803 5804 5804 5805 5805 5804 5804 5804 5803 5802 5801 5800 5798 5797
5668 5671 5674 5677 5679 5682 5685 5689 5693 5696 5699 5704 5709 5714 5719 5724 5729 5734 5739 5744 5749 5754 5759 5763 5767 5771 5774 5778 5781 5784 5786 5789 5791 5793 5794 5795 5796 5797 5797 5797 5797 5797 5797 5796 5795 5794 5792 5791 5790
5662 5665 5668 5672 5674 5676 5679 5682 5686 5689 5693 5698 5702 5707 5712 5717 5721 5726 5731 5736 5740 5745 5750 5755 5759 5763 5766 5770 5773 5776 5778 5781 5783 5785 5786 5787 5788 5789 5790 5790 5790 5789 5789 5788 5787 5786 5785 5784 5782
5658 5661 5664 5666 5669 5670 5673 5676 5680 5683 5687 5691 5695 5700 5704 5709 5713 5718 5723 5727 5732 5737 5741 5746 5750 5754 5758 5762 5765 5768 5771 5773 5775 5777 5779 5780 5781 5781 5782 5782 5782 5782 5781 5780 5779 5779 5778 5776 5775
5655 5657 5659 5661 5663 5665 5668 5670 5675 5678 5681 5685 5689 5693 5697 5702 5706 5710 5715 5719 5724 5728 5733 5737 5741 5745 5749 5753 5756 5760 5762 5765 5767 5769 5770 5772 5773 5773 5774 5773 5774 5774 5773 5773 5772 5771 5770 5768 5767
5651 5653 5655 5656 5658 5660 5662 5665 5669 5672 5675 5680 5683 5687 5690 5694 5699 5703 5707 5711 5715 5720 5724 5728 5733 5737 5740 5744 5748 5751 5754 5756 5758 5760 5762 5763 5764 5765 5765 5766 5766 5766 5765 5765 5764 5763 5762 5761 5759
5647 5649 5650 5651 5653 5655 5658 5660 5663 5666 5671 5674 5677 5681 5684 5688 5691 5695 5699 5703 5707 5711 5716 5720 5724 5728 5731 5735 5739 5742 5745 5747 5750 5752 5753 5755 5756 5757 5757 5757 5758 5758 5757 5757 5756 5755 5754 5753 5751
5642 5645 5646 5646 5647 5650 5653 5655 5659 5662 5666 5668 5671 5674 5677 5680 5684 5688 5692 5695 5699 5703 5707 5711 5715 5719 5722 5726 5729 5733 5735 5738 5740 5743 5744 5746 5747 5748 5749 5749 5750 5749 5749 5749 5748 5747 5746 5745 5743
5638 5640 5642 5642 5643 5646 5648 5650 5654 5657 5659 5662 5664 5667 5670 5673 5676 5680 5684 5687 5691 5695 5698 5702 5706 5710 5713 5717 5720 5723 5726 5729 5731 5733 5735 5737 5738 5739 5740 5741 5741 5741 5741 5740 5740 5739 5738 5737 5735
5635 5636 5637 5639 5640 5642 5643 5645 5649 5651 5653 5655 5657 5660 5663 5666 5669 5673 5676 5680 5683 5686 5690 5693 5697 5701 5704 5707 5710 5713 5716 5719 5721 5723 5726 5727 5729 5730 5731 5732 5732 5732 5732 5732 5731 5731 5730 5729 5727
5632 5633 5634 5635 5635 5636 5639 5641 5644 5645 5647 5649 5651 5653 5656 5659 5662 5665 5669 5672 5675 5678 5682 5685 5688 5691 5695 5698 5701 5704 5706 5709 5712 5714 5716 5718 5719 5720 5721 5722 5723 5723 5723 5723 5723 5723 5722 5721 5719
5629 5630 5630 5631 5632 5633 5634 5639 5639 5641 5641 5643 5645 5647 5649 5652 5655 5658 5661 5664 5667 5670 5673 5676 5679 5682 5686 5689 5692 5694 5697 5699 5702 5704 5706 5708 5709 5711 5712 5713 5713 5714 5714 5714 5714 5714 5714 5713 5711
5625 5626 5626 5628 5628 5629 5630 5636 5634 5635 5636 5637 5639 5640 5643 5645 5648 5650 5653 5657 5660 5662 5665 5668 5671 5674 5677 5679 5682 5685 5687 5689 5692 5694 5696 5697 5699 5700 5702 5703 5704 5704 5705 5705 5706 5705 5705 5704 5703